Weather Roundup
Issued by NWS Springfield, MO

Home | Current Version | Previous Version | Text Only | Print | Product List | Glossary On
Versions: 1 2 3 4 5 6 7 8 9 10 11 12 13 14 15 16 17 18 19 20 21 22 23 24 25 26 27 28 29 30 31 32 33 34 35 36 37 38 39 40 41 42 43 44 45 46 47 48 49 50
000
NZUS99 KSGF 021507
HRRSGF

HOURLY WEATHER
NATIONAL WEATHER SERVICE SPRINGFIELD MO
1000 AM CDT TUE JUN 02 2015

......SGF CWA......

CITY           SKY/WX    TMP DP  RH WIND       PRES   REMARKS
SPRINGFIELD    CLOUDY    64  58  80 SE10      30.10S
JOPLIN         PTSUNNY   69  62  78 SE9       30.07F
WEST PLAINS    CLOUDY    64  54  69 CALM      30.14S
ROLLA          CLOUDY    61  56  83 NE6       30.12F
OSAGE BEACH    CLOUDY    64  54  68 SE7       30.12F
BRANSON        CLOUDY    63  59  88 SE7       30.12F

......SURROUNDING SGF CWA......

CITY           SKY/WX    TMP DP  RH WIND       PRES   REMARKS
CHANUTE        MOSUNNY   66  60  81 E8        30.07S
PARSONS        MOSUNNY   68  62  81 VRB5      30.07F
COFFEYVILLE    CLOUDY    70  63  78 S7        30.04F
EMPORIA        PTSUNNY   65  59  81 SE9       30.05S
GROVE OK       PTSUNNY   72  64  78 S3        30.07F
ROGERS AR      MOSUNNY   71  64  78 S3        30.10F
SILOAM SPRINGS CLOUDY    72  61  68 S8        30.10S
HARRISON AR    CLOUDY    63  60  90 E5        30.12S
NEAR YELLVILLE CLOUDY    64  57  77 SE5       30.10F

......KANSAS AND MISSOURI......

CITY           SKY/WX    TMP DP  RH WIND       PRES   REMARKS
KANSAS CTY INT PTSUNNY   63  56  78 SE12      30.09F
DOWNTOWN KC    CLOUDY    64  54  69 SE10      30.09F
COLUMBIA       CLOUDY    64  56  75 E3        30.13F
SEDALIA        CLOUDY    64  55  72 SE9       30.14R
ST JOSEPH      CLOUDY    63  55  75 SE12      30.08F
ST LOUIS       MOSUNNY   66  54  65 VRB3      30.15S
SPIRIT OF STL  PTSUNNY   66  55  67 CALM      30.14S
KIRKSVILLE     PTSUNNY   63  58  83 SE9       30.13F
WICHITA        PTSUNNY   74  61  63 SE15      30.00F
TOPEKA         PTSUNNY   64  57  78 SE15      30.05F
OLATHE         CLOUDY    63  56  78 SE9       30.09F

......TENNESSEE......

CITY           SKY/WX    TMP DP  RH WIND       PRES   REMARKS
MEMPHIS        PTSUNNY   71  60  68 NE7       30.10F
NASHVILLE      CLOUDY    63  59  87 N7        30.11F FOG

......ARKANSAS.......

CITY           SKY/WX    TMP DP  RH WIND       PRES   REMARKS
FAYETTEVILLE   MOSUNNY   71  65  81 S9        30.09S
FT SMITH       PTSUNNY   74  64  71 NE7       30.07S
LITTLE ROCK    PTSUNNY   70  60  70 E7        30.11F

......OKLAHOMA.......

CITY           SKY/WX    TMP DP  RH WIND       PRES   REMARKS
TULSA          CLOUDY    74  65  73 SE8       30.02F
PONCA CITY     MOSUNNY   76  63  64 SE13      30.01F
MCALESTER      MOSUNNY   76  65  68 S8        30.06S
OKLAHOMA CITY  PTSUNNY   77  62  59 S15       30.01S

......IOWA............

CITY           SKY/WX    TMP DP  RH WIND       PRES   REMARKS
DES MOINES     CLOUDY    63  53  70 S16       30.10F
QUAD CITIES    SUNNY     65  50  58 E5        30.16F

......ILLINOIS........

CITY           SKY/WX    TMP DP  RH WIND       PRES   REMARKS
QUINCY         SUNNY     64  55  72 SE8       30.14F
CHICAGO        MOSUNNY   61  47  59 CALM      30.20F



USA.gov is the U.S. government's official web portal to all federal, state and local government web resources and services.